Location: Observatoire
(46.1952°N, 5.3391°E)
Time: 14:27:01
(UTC+02:00)

CAS-4A - Visible Passes

Search period start: 24 April 2024 00:00
Search period end: 04 May 2024 00:00
Orbit: 479 x 495 km, 43.0° (Epoch: 24 April)

Date Brightness Start Highest point End Pass type
(mag) Time Alt. Az. Time Alt. Az. Time Alt. Az.
24 Apr ? 04:39:14 48° SSW 04:39:45 53° S 04:43:29 10° ESE visible
25 Apr ? 04:13:59 47° SE 04:13:59 47° SE 04:17:06 10° ESE visible
25 Apr ? 05:48:35 10° W 05:52:07 37° SSW 05:55:40 10° SE visible
26 Apr ? 03:48:46 26° ESE 03:48:46 26° ESE 03:50:39 10° ESE visible
26 Apr ? 05:23:05 16° WSW 05:25:41 37° SSW 05:29:13 10° SE visible
27 Apr ? 03:23:38 13° ESE 03:23:38 13° ESE 03:24:10 10° ESE visible
27 Apr ? 04:57:57 29° WSW 04:59:11 37° SSW 05:02:43 10° SE visible
28 Apr ? 04:32:58 36° S 04:32:58 36° S 04:36:10 10° SE visible
29 Apr ? 04:08:12 20° SE 04:08:12 20° SE 04:09:35 10° SE visible
29 Apr ? 05:42:33 10° WSW 05:44:25 14° SSW 05:46:22 10° S visible
30 Apr ? 05:18:07 14° SSW 05:18:07 14° SSW 05:19:44 10° S visible
02 May ? 22:58:26 10° SW 22:59:15 15° SW 22:59:15 15° SW visible
03 May ? 22:31:36 10° SW 22:34:48 30° SSE 22:34:48 30° SSE visible
